Home   Weather   Ribeirão Prêto   Past weeks
Flag for Brazil

Past Weather in Ribeirão Prêto, São Paulo, Brazil — Yesterday and Last 2 Weeks

Now
81 °F

Passing clouds.


Feels Like: 81 °F
Forecast: 82 / 58 °F
Wind: 7 mph from West

Location: Leite Lopes / Ribeir

Current Time: May 19, 2019 at 3:55:12 pm

Latest Report: May 19, 2019 at 3:00 pm


Visibility: N/A

Pressure: 29.98 "Hg (28.16 "Hg at 549m altitude)

Humidity: 42%

Dew Point: 55 °F

Location of Ribeirão PrêtoLocation

Past Weather in Ribeirão Prêto — Graph

°F

Ribeirão Prêto Temperature Yesterday

Maximum temperature yesterday: 77 °F (at 12:00 pm)
Minimum temperature yesterday: 64 °F (at 2:00 am)
Average temperature yesterday: 69 °F

High & Low Weather Summary for the Past Weeks

 TemperatureHumidityPressure
High90 °F (May 7, 2:00 pm)100% (May 12, 4:00 am)30.12 "Hg (May 12, 4:00 am)
Low61 °F (May 17, 6:00 am)31% (May 9, 1:00 pm)29.89 "Hg (May 10, 4:00 pm)
Average74 °F76%30.03 "Hg
* Reported May 4 2:00 pm — May 19 2:00 pm, Ribeirão Prêto. Weather by CustomWeather, © 2019

Note: Actual official high and low records may vary slightly from our data, if they occured in-between our weather recording intervals... More about our weather records

Advertising

Ribeirão Prêto Weather History for the Previous 24 Hours

Scroll right to see more
 ConditionsComfort  
Time TempWeatherWind HumidityBarometerVisibility
2:00 pm
Sun, May 19
81 °FScattered clouds.7 mph51%30.01 "HgN/A
1:00 pm79 °FScattered clouds.8 mph58%30.04 "HgN/A
12:00 pm79 °FScattered clouds.6 mph58%30.07 "HgN/A
11:00 am73 °FPassing clouds.2 mph78%30.09 "HgN/A
10:00 am66 °FScattered clouds.5 mph100%30.09 "Hg5 mi
9:10 am63 °FFog.6 mph100%30.09 "Hg1 mi
8:22 am61 °FFog.6 mph100%30.09 "Hg1 mi
8:00 am61 °FFog.6 mph100%30.09 "Hg1 mi
7:00 am61 °FFog.7 mph100%30.07 "Hg0 mi
6:00 am61 °FFog.6 mph100%30.07 "Hg0 mi
5:00 am61 °FFog.5 mph100%30.04 "Hg0 mi
4:00 am61 °FFog.5 mph100%30.04 "Hg0 mi
3:00 am61 °FFog.5 mph100%30.04 "Hg0 mi
2:00 am63 °FPassing clouds.5 mph94%30.04 "Hg4 mi
1:00 am63 °FClear.5 mph100%30.07 "Hg10 mi
12:00 am64 °FClear.5 mph94%30.07 "Hg10 mi
11:00 pm
Sat, May 18
64 °FClear.5 mph94%30.07 "Hg10 mi
10:00 pm66 °FClear.3 mph88%30.07 "Hg10 mi
9:00 pm66 °FClear.6 mph94%30.07 "Hg10 mi
8:00 pm68 °FClear.5 mph88%30.07 "Hg10 mi
7:00 pm72 °FPassing clouds.5 mph78%30.04 "HgN/A
6:00 pm73 °FPassing clouds.3 mph69%30.04 "HgN/A
5:00 pm77 °FScattered clouds.5 mph61%30.01 "HgN/A
4:00 pm73 °FScattered clouds.6 mph74%30.01 "HgN/A
3:00 pm75 °FRain showers. Partly sunny.5 mph65%30.01 "Hg4 mi
Weather by CustomWeather, © 2019

See weather overview